This is the latest recevied weather packets stored in our database for station/object K7ZQU-7. If no packets are shown the sender has not sent any weather packets the latest 10 day(s).
| Time | Temp. | Humidity | Pressure | Rain* | Wind** | Luminosity | Snow |
|---|---|---|---|---|---|---|---|
| 1777603649 | 13.33° C | 45% | 1017 hPa | 0 mm | 0 m/s | - | - |
| 1777603052 | 13.89° C | 44% | 1017 hPa | 0 mm | 0 m/s | - | - |
| 1777602753 | 13.89° C | 44% | 1017.1 hPa | 0 mm | 0.45 m/s, 180° | - | - |
| 1777602454 | 14.44° C | 42% | 1017.1 hPa | 0 mm | 0.89 m/s, 17° | - | - |
| 1777601853 | 14.44° C | 41% | 1017.1 hPa | 0 mm | 0.45 m/s, 104° | - | - |
| 1777601554 | 15° C | 41% | 1017.1 hPa | 0 mm | 0.45 m/s, 31° | - | - |
| 1777600957 | 15° C | 40% | 1017.2 hPa | 0 mm | 0.45 m/s, 138° | - | - |
| 1777600655 | 15° C | 40% | 1017.1 hPa | 0 mm | 0.45 m/s, 38° | - | - |
| 1777600356 | 15.56° C | 39% | 1017.2 hPa | 0 mm | 1.79 m/s, 108° | - | - |
| 1777600058 | 15.56° C | 39% | 1017.2 hPa | 0 mm | 0.45 m/s, 37° | - | - |
| 1777599758 | 15.56° C | 39% | 1017.2 hPa | 0 mm | 1.34 m/s, 159° | - | - |
| 1777599460 | 16.11° C | 38% | 1017.2 hPa | 0 mm | 0.89 m/s, 41° | - | - |
| 1777599158 | 16.11° C | 38% | 1017.2 hPa | 0 mm | 1.34 m/s, 121° | - | - |
| 1777598859 | 16.11° C | 38% | 1017.3 hPa | 0 mm | 1.79 m/s, 204° | - | - |
| 1777598560 | 16.11° C | 38% | 1017.3 hPa | 0 mm | 0.89 m/s, 1° | - | - |
| 1777598261 | 16.11° C | 38% | 1017.2 hPa | 0 mm | 1.79 m/s, 111° | - | - |
| 1777597361 | 16.67° C | 37% | 1017.3 hPa | 0 mm | 0.89 m/s, 32° | - | - |
| 1777596465 | 16.67° C | 36% | 1017.3 hPa | 0 mm | 0.89 m/s, 121° | - | - |
| 1777596163 | 16.67° C | 35% | 1017.5 hPa | 0 mm | 1.79 m/s, 44° | - | - |
| 1777595864 | 16.67° C | 35% | 1017.3 hPa | 0 mm | 1.34 m/s, 356° | - | - |
| 1777595266 | 17.22° C | 35% | 1017.3 hPa | 0 mm | 1.79 m/s, 170° | - | - |
| 1777594967 | 17.22° C | 36% | 1017.3 hPa | 0 mm | 2.24 m/s, 28° | - | - |
| 1777594666 | 17.22° C | 34% | 1017.3 hPa | 0 mm | 0.45 m/s, 39° | - | - |
| 1777594372 | 17.22° C | 35% | 1017.5 hPa | 0 mm | 1.34 m/s, 0° | - | - |
| 1777593470 | 17.22° C | 35% | 1017.5 hPa | 0 mm | 0.45 m/s, 90° | - | - |
* Rain latest hour (hover to see other rain measurements)
** Current wind speed in m/s (hover to see current wind gust speed)